Date String (YYYY-MM-DD hh:mm:ss) UTC,Instrument flags,absolute air pressure of the measurement (hPa),sample flow rate (lpm),inlet stack bypass flow (lpm),air temperature of the measurement (°C),ambient temperature measured by the external sensor (°C),aerosol sample conditioner tube jacket temperature (°C),OPC LED temperature (°C),internal box temperature (°C),relative humidity of the measurement (%),span deviation,mass concentration of particles derived from Lorenz-Mie calculation of OPC scattering (μg/m³),mass concentration of particles derived from Lorenz-Mie calculation of OPC scattering (μg/m³),mass concentration of particles derived from Lorenz-Mie calculation of OPC scattering (μg/m³)
DateTimeUTC,F1_M11,P_M11,Q1_M11,Q2_M11,T1_M11,T2_M11,T3_M11,T4_M11,T5_M11,U1_M11,ZSPAN_M11,X2_M11,X0_M11,X1_M11
2024-01-13 03:00:00,SystemResetWarning,0815.9,5.00,000.00,019.4,019.2,000.0,027.6,020.4,6.7,0002.0,0005.95,0014.15,0004.93
2024-01-13 03:01:00,SystemResetWarning,0815.9,5.01,000.00,019.3,018.9,000.0,027.6,020.1,6.8,0002.4,0006.00,0014.25,0004.95
2024-01-13 03:02:00,SystemResetWarning,0815.9,5.01,000.00,019.2,018.6,000.0,027.6,020.0,6.8,0002.5,0005.99,0013.99,0004.97
2024-01-13 03:03:00,SystemResetWarning,0815.8,5.00,000.00,019.2,018.4,000.0,027.6,020.0,6.8,0002.5,0005.99,0013.87,0004.99
2024-01-13 03:04:00,SystemResetWarning,0815.8,5.00,000.00,019.2,018.6,000.0,027.6,020.5,6.8,0002.3,0005.98,0012.79,0005.00
2024-01-13 03:05:00,SystemResetWarning,0815.9,5.00,000.00,019.3,019.3,000.0,027.6,021.1,6.7,0001.0,0005.95,0011.88,0005.01
2024-01-13 03:06:00,SystemResetWarning,0815.8,5.00,000.00,019.4,019.6,000.0,027.6,021.0,6.7,0002.0,0005.93,0011.55,0005.02
2024-01-13 03:07:00,SystemResetWarning,0815.9,5.00,000.00,019.4,019.3,000.0,027.6,020.5,6.7,0002.6,0005.94,0012.92,0005.02
2024-01-13 03:08:00,SystemResetWarning,0815.9,5.00,000.00,019.3,019.0,000.0,027.6,020.1,6.7,0002.5,0005.96,0013.33,0005.03
2024-01-13 03:09:00,SystemResetWarning,0816.1,5.01,000.00,019.3,018.7,000.0,027.6,020.0,6.7,0003.0,0005.90,0012.94,0005.01
2024-01-13 03:10:00,SystemResetWarning,0816.0,5.00,000.00,019.2,018.5,000.0,027.6,020.0,6.7,0003.0,0005.91,0013.45,0005.01
2024-01-13 03:11:00,SystemResetWarning,0816.0,5.01,000.00,019.1,018.3,000.0,027.6,020.0,6.7,0003.2,0005.93,0013.50,0005.01
2024-01-13 03:12:00,SystemResetWarning,0815.8,5.00,000.00,019.1,018.2,000.0,027.6,020.2,6.7,0003.3,0005.86,0013.18,0005.01
2024-01-13 03:13:00,SystemResetWarning,0815.9,5.01,000.00,019.2,018.8,000.0,027.6,020.7,6.7,0003.5,0005.85,0013.32,0005.01
2024-01-13 03:14:00,SystemResetWarning,0815.8,5.01,000.00,019.3,019.4,000.0,027.6,021.0,6.6,0003.2,0005.87,0013.12,0005.02
2024-01-13 03:15:00,SystemResetWarning,0815.9,4.99,000.00,019.4,019.3,000.0,027.6,020.6,6.6,0003.2,0005.86,0013.16,0005.01
2024-01-13 03:16:00,SystemResetWarning,0816.1,4.99,000.00,019.3,019.0,000.0,027.6,020.2,6.6,0003.0,0005.86,0013.18,0005.00
2024-01-13 03:17:00,SystemResetWarning,0816.2,5.00,000.00,019.2,018.7,000.0,027.6,020.0,6.6,0003.1,0005.86,0013.07,0005.00
2024-01-13 03:18:00,SystemResetWarning,0816.3,5.01,000.00,019.1,018.5,000.0,027.6,020.0,6.6,0003.1,0005.89,0011.80,0005.02
2024-01-13 03:19:00,SystemResetWarning,0816.3,5.01,000.00,019.1,018.3,000.0,027.6,020.0,6.6,0003.0,0005.82,0011.19,0005.01
2024-01-13 03:20:00,SystemResetWarning,0816.4,5.00,000.00,019.1,018.2,000.0,027.6,020.0,6.6,0002.8,0005.78,0010.98,0005.01
2024-01-13 03:21:00,SystemResetWarning,0816.5,5.00,000.00,019.0,018.0,000.0,027.6,020.0,6.6,0003.0,0005.76,0010.39,0005.02
2024-01-13 03:22:00,SystemResetWarning,0816.5,4.99,000.00,019.0,017.9,000.0,027.6,020.0,6.6,0003.1,0005.78,0010.54,0005.03
2024-01-13 03:23:00,SystemResetWarning,0816.5,4.99,000.00,019.0,017.8,000.0,027.6,020.0,6.6,0002.9,0005.78,0010.59,0005.02
2024-01-13 03:24:00,SystemResetWarning,0816.3,5.00,000.00,019.0,018.0,000.0,027.6,020.3,6.6,0002.8,0005.74,0010.38,0005.02
2024-01-13 03:25:00,SystemResetWarning,0816.3,5.01,000.00,019.1,018.6,000.0,027.5,020.7,6.6,0003.0,0005.75,0010.54,0005.03
2024-01-13 03:26:00,SystemResetWarning,0816.3,4.99,000.00,019.2,019.2,000.0,027.5,020.8,6.6,0003.4,0005.78,0010.84,0005.05
2024-01-13 03:27:00,SystemResetWarning,0816.4,4.99,000.00,019.2,019.0,000.0,027.5,020.4,6.5,0003.5,0005.79,0010.79,0005.07
2024-01-13 03:28:00,SystemResetWarning,0816.5,5.00,000.00,019.1,018.7,000.0,027.5,020.0,6.6,0003.1,0005.76,0010.81,0005.06
2024-01-13 03:29:00,SystemResetWarning,0816.6,5.01,000.00,019.1,018.5,000.0,027.5,020.0,6.6,0003.0,0005.71,0011.17,0005.03
2024-01-13 03:30:00,SystemResetWarning,0816.7,5.00,000.00,019.0,018.2,000.0,027.5,020.0,6.6,0003.3,0005.70,0011.18,0005.03
2024-01-13 03:31:00,SystemResetWarning,0816.6,5.00,000.00,019.0,018.1,000.0,027.5,020.0,6.6,0003.7,0005.74,0011.25,0005.03
2024-01-13 03:32:00,SystemResetWarning,0816.7,5.00,000.00,019.0,017.9,000.0,027.5,020.0,6.6,0003.6,0005.71,0011.14,0005.01
2024-01-13 03:33:00,SystemResetWarning,0816.7,4.99,000.00,018.9,017.8,000.0,027.5,020.0,6.6,0003.5,0005.69,0011.03,0004.98
2024-01-13 03:34:00,SystemResetWarning,0816.9,5.00,000.00,018.9,017.7,000.0,027.5,020.0,6.6,0003.9,0005.72,0011.11,0004.97
2024-01-13 03:35:00,SystemResetWarning,0816.9,5.00,000.00,018.9,017.8,000.0,027.5,020.2,6.6,0004.0,0005.76,0011.52,0004.96
2024-01-13 03:36:00,SystemResetWarning,0816.9,5.02,000.00,019.0,018.4,000.0,027.5,020.6,6.6,0004.1,0005.72,0011.41,0004.92
2024-01-13 03:37:00,SystemResetWarning,0816.8,4.99,000.00,019.2,019.1,000.0,027.4,020.9,6.5,0004.1,0005.66,0011.07,0004.87
2024-01-13 03:38:00,SystemResetWarning,0816.7,4.98,000.00,019.2,019.0,000.0,027.4,020.4,6.5,0004.2,0005.63,0011.06,0004.84
2024-01-13 03:39:00,SystemResetWarning,0816.7,5.00,000.00,019.1,018.7,000.0,027.4,020.1,6.5,0004.2,0005.66,0011.11,0004.83
2024-01-13 03:40:00,SystemResetWarning,0816.8,5.00,000.00,019.1,018.5,000.0,027.4,020.0,6.5,0004.4,0005.63,0010.52,0004.84
2024-01-13 03:41:00,SystemResetWarning,0816.9,5.00,000.00,019.0,018.3,000.0,027.5,020.0,6.5,0004.5,0005.63,0010.85,0004.84
2024-01-13 03:42:00,SystemResetWarning,0816.8,4.99,000.00,019.0,018.1,000.0,027.5,020.0,6.5,0004.2,0005.64,0011.47,0004.84
2024-01-13 03:43:00,SystemResetWarning,0816.7,5.00,000.00,019.0,018.0,000.0,027.5,020.0,6.5,0004.5,0005.63,0011.58,0004.84
2024-01-13 03:44:00,SystemResetWarning,0816.8,5.01,000.00,018.9,017.9,000.0,027.5,020.0,6.6,0004.8,0005.60,0011.64,0004.84
2024-01-13 03:45:00,SystemResetWarning,0816.9,5.01,000.00,018.9,017.8,000.0,027.5,020.1,6.6,0004.4,0005.60,0011.69,0004.85
2024-01-13 03:46:00,SystemResetWarning,0816.9,5.01,000.00,019.0,018.3,000.0,027.4,020.5,6.5,0004.5,0005.58,0011.25,0004.85
2024-01-13 03:47:00,SystemResetWarning,0816.9,4.99,000.00,019.1,019.0,000.0,027.4,020.8,6.5,0002.0,0005.58,0010.84,0004.87
2024-01-13 03:48:00,SystemResetWarning,0816.9,4.99,000.00,019.2,019.0,000.0,027.4,020.4,6.5,0003.6,0005.58,0010.63,0004.88
2024-01-13 03:49:00,SystemResetWarning,0816.9,5.00,000.00,019.1,018.7,000.0,027.4,020.0,6.6,0003.8,0005.60,0010.70,0004.90
2024-01-13 03:50:00,SystemResetWarning,0816.9,5.00,000.00,019.0,018.5,000.0,027.4,020.0,6.6,0003.9,0005.58,0011.02,0004.90
2024-01-13 03:51:00,SystemResetWarning,0816.9,5.00,000.00,019.0,018.2,000.0,027.5,020.0,6.6,0003.7,0005.58,0011.08,0004.89
2024-01-13 03:52:00,SystemResetWarning,0816.9,5.00,000.00,019.0,018.0,000.0,027.5,020.0,6.6,0003.8,0005.57,0011.50,0004.88
2024-01-13 03:53:00,SystemResetWarning,0816.9,5.01,000.00,018.9,017.9,000.0,027.5,020.0,6.6,0003.7,0005.53,0011.15,0004.87
2024-01-13 03:54:00,SystemResetWarning,0816.8,5.00,000.00,018.9,017.8,000.0,027.5,020.1,6.6,0003.4,0005.52,0011.05,0004.88
2024-01-13 03:55:00,SystemResetWarning,0816.9,5.01,000.00,019.0,018.3,000.0,027.4,020.5,6.6,0003.4,0005.53,0011.05,0004.89
2024-01-13 03:56:00,SystemResetWarning,0816.9,4.99,000.00,019.1,018.9,000.0,027.4,020.8,6.5,0003.5,0005.48,0011.24,0004.88
2024-01-13 03:57:00,SystemResetWarning,0816.9,4.99,000.00,019.2,019.0,000.0,027.4,020.4,6.5,0003.5,0005.48,0011.62,0004.88
2024-01-13 03:58:00,SystemResetWarning,0816.9,4.99,000.00,019.1,018.7,000.0,027.4,020.0,6.6,0003.2,0005.48,0011.77,0004.87
2024-01-13 03:59:00,SystemResetWarning,0816.9,5.00,000.00,019.0,018.4,000.0,027.4,020.0,6.6,0003.3,0005.51,0012.10,0004.87
